• Em Portugal
  • Lista de países
  • Para 7 dias
  • Temperatura da água
  • Mapas de satélite
  • Mapa do tempo
  • Widgets de tempo
  • user-avatar
    Iniciar Sessão

    Previsão horária em Sofia

    Hoje, 25 Setembro, Terça-feira

    Tempo Temperatura Precipitação Vento Pressão Humidade
    00:00 +10°C° 0 mm 4 m/s 716 mmHg 73%
    01:00 +9°C° 0 mm 3 m/s 716 mmHg 74%
    02:00 +8°C° 0 mm 3 m/s 716 mmHg 78%
    03:00 +7°C° 0 mm 3 m/s 716 mmHg 79%
    04:00 +7°C° 0 mm 3 m/s 717 mmHg 81%
    05:00 +6°C° 0 mm 2 m/s 717 mmHg 83%
    06:00 +7°C° 0 mm 3 m/s 717 mmHg 78%
    07:00 +7°C° 0 mm 3 m/s 718 mmHg 72%
    08:00 +7°C° 0 mm 4 m/s 718 mmHg 69%
    09:00 +10°C° 0 mm 4 m/s 718 mmHg 57%
    10:00 +11°C° 0 mm 4 m/s 718 mmHg 46%
    11:00 +13°C° 0 mm 4 m/s 718 mmHg 35%
    12:00 +14°C° 0 mm 4 m/s 718 mmHg 32%
    13:00 +15°C° 0 mm 5 m/s 718 mmHg 29%
    14:00 +15°C° 0 mm 5 m/s 718 mmHg 27%
    15:00 +15°C° 0 mm 5 m/s 718 mmHg 28%
    16:00 +14°C° 0 mm 5 m/s 718 mmHg 29%
    17:00 +13°C° 0 mm 4 m/s 718 mmHg 31%
    18:00 +11°C° 0 mm 3 m/s 718 mmHg 37%
    19:00 +9°C° 0 mm 3 m/s 719 mmHg 43%
    20:00 +7°C° 0 mm 2 m/s 719 mmHg 49%
    21:00 +6°C° 0 mm 2 m/s 720 mmHg 52%
    22:00 +7°C° 0 mm 1 m/s 720 mmHg 55%
    23:00 +6°C° 0 mm 1 m/s 721 mmHg 58%

    Amanhã, 26 Setembro, Quarta-feira

    Tempo Temperatura Precipitação Vento Pressão Humidade
    00:00 +6°C° 0 mm 1 m/s 721 mmHg 60%
    01:00 +5°C° 0 mm 1 m/s 721 mmHg 62%
    02:00 +5°C° 0 mm 1 m/s 721 mmHg 64%
    03:00 +4°C° 0 mm 1 m/s 721 mmHg 66%
    04:00 +4°C° 0 mm 1 m/s 721 mmHg 67%
    05:00 +4°C° 0 mm 1 m/s 721 mmHg 69%
    06:00 +5°C° 0 mm 1 m/s 722 mmHg 63%
    07:00 +6°C° 0 mm 1 m/s 722 mmHg 58%
    08:00 +8°C° 0 mm 1 m/s 723 mmHg 52%
    09:00 +9°C° 0 mm 2 m/s 723 mmHg 46%
    10:00 +11°C° 0 mm 3 m/s 723 mmHg 41%
    11:00 +13°C° 0 mm 3 m/s 723 mmHg 35%
    12:00 +13°C° 0 mm 4 m/s 723 mmHg 33%
    13:00 +13°C° 0 mm 4 m/s 722 mmHg 32%
    14:00 +14°C° 0 mm 4 m/s 722 mmHg 31%
    15:00 +13°C° 0 mm 4 m/s 721 mmHg 33%
    16:00 +13°C° 0 mm 4 m/s 721 mmHg 35%
    17:00 +12°C° 0 mm 4 m/s 721 mmHg 37%
    18:00 +10°C° 0 mm 3 m/s 721 mmHg 44%
    19:00 +8°C° 0 mm 2 m/s 721 mmHg 52%
    20:00 +6°C° 0 mm 2 m/s 722 mmHg 59%
    21:00 +5°C° 0 mm 2 m/s 722 mmHg 61%
    22:00 +6°C° 0 mm 1 m/s 722 mmHg 63%
    23:00 +5°C° 0 mm 1 m/s 722 mmHg 65%

    Depois de amanhã, 27 Setembro, Quinta-feira

    Tempo Temperatura Precipitação Vento Pressão Humidade
    00:00 +5°C° 0 mm 1 m/s 722 mmHg 64%
    01:00 +5°C° 0 mm 1 m/s 722 mmHg 64%
    02:00 +5°C° 0 mm 1 m/s 722 mmHg 64%
    03:00 +4°C° 0 mm 1 m/s 722 mmHg 64%
    04:00 +4°C° 0 mm 1 m/s 722 mmHg 65%
    05:00 +4°C° 0 mm 1 m/s 721 mmHg 65%
    06:00 +5°C° 0 mm 1 m/s 722 mmHg 59%
    07:00 +7°C° 0 mm 1 m/s 722 mmHg 53%
    08:00 +8°C° 0 mm 1 m/s 722 mmHg 47%
    09:00 +10°C° 0 mm 2 m/s 722 mmHg 40%
    10:00 +13°C° 0 mm 2 m/s 721 mmHg 34%
    11:00 +14°C° 0 mm 3 m/s 721 mmHg 27%
    12:00 +16°C° 0 mm 3 m/s 721 mmHg 25%
    13:00 +17°C° 0 mm 3 m/s 720 mmHg 23%
    14:00 +18°C° 0 mm 3 m/s 720 mmHg 21%
    15:00 +18°C° 0 mm 3 m/s 719 mmHg 23%
    16:00 +17°C° 0 mm 3 m/s 719 mmHg 24%
    17:00 +16°C° 0 mm 3 m/s 718 mmHg 26%
    18:00 +14°C° 0 mm 2 m/s 718 mmHg 31%
    19:00 +10°C° 0 mm 2 m/s 718 mmHg 36%
    20:00 +9°C° 0 mm 1 m/s 718 mmHg 41%
    21:00 +9°C° 0 mm 1 m/s 718 mmHg 42%
    22:00 +8°C° 0 mm 1 m/s 718 mmHg 42%
    23:00 +8°C° 0 mm 1 m/s 718 mmHg 43%

    28 Setembro, Sexta-feira

    Tempo Temperatura Precipitação Vento Pressão Humidade
    00:00 +8°C° 0 mm 1 m/s 718 mmHg 42%
    01:00 +8°C° 0 mm 1 m/s 718 mmHg 41%
    02:00 +7°C° 0 mm 1 m/s 717 mmHg 41%
    03:00 +7°C° 0 mm 1 m/s 717 mmHg 40%
    04:00 +7°C° 0 mm 1 m/s 717 mmHg 40%
    05:00 +7°C° 0 mm 1 m/s 716 mmHg 40%
    06:00 +9°C° 0 mm 1 m/s 716 mmHg 37%
    07:00 +10°C° 0 mm 1 m/s 717 mmHg 35%
    08:00 +11°C° 0 mm 1 m/s 717 mmHg 33%
    09:00 +14°C° 0 mm 1 m/s 716 mmHg 29%
    10:00 +17°C° 0 mm 2 m/s 716 mmHg 25%
    11:00 +19°C° 0 mm 2 m/s 716 mmHg 21%
    12:00 +20°C° 0 mm 2 m/s 716 mmHg 21%
    13:00 +21°C° 0 mm 2 m/s 715 mmHg 20%
    14:00 +23°C° 0 mm 2 m/s 714 mmHg 19%
    15:00 +21°C° 0 mm 2 m/s 714 mmHg 21%
    16:00 +21°C° 0 mm 2 m/s 713 mmHg 24%
    17:00 +20°C° 0 mm 2 m/s 713 mmHg 26%
    18:00 +17°C° 0 mm 2 m/s 713 mmHg 30%
    19:00 +15°C° 0 mm 1 m/s 712 mmHg 35%
    20:00 +12°C° 0 mm 1 m/s 712 mmHg 40%
    21:00 +11°C° 0 mm 1 m/s 712 mmHg 40%
    22:00 +11°C° 0 mm 1 m/s 712 mmHg 41%
    23:00 +10°C° 0 mm 1 m/s 712 mmHg 41%

    29 Setembro, Sábado

    Tempo Temperatura Precipitação Vento Pressão Humidade
    00:00 +10°C° 0 mm 1 m/s 712 mmHg 40%
    01:00 +10°C° 0 mm 1 m/s 712 mmHg 40%
    02:00 +10°C° 0 mm 1 m/s 711 mmHg 39%
    03:00 +10°C° 0 mm 1 m/s 711 mmHg 39%
    04:00 +10°C° 0 mm 1 m/s 711 mmHg 39%
    05:00 +10°C° 0 mm 1 m/s 711 mmHg 38%
    06:00 +11°C° 0 mm 1 m/s 711 mmHg 36%
    07:00 +13°C° 0 mm 1 m/s 711 mmHg 34%
    08:00 +13°C° 0 mm 0 m/s 712 mmHg 32%
    09:00 +18°C° 0 mm 1 m/s 712 mmHg 29%
    10:00 +20°C° 0 mm 1 m/s 712 mmHg 25%
    11:00 +23°C° 0 mm 1 m/s 712 mmHg 21%
    12:00 +24°C° 0 mm 1 m/s 712 mmHg 21%
    13:00 +24°C° 0 mm 2 m/s 711 mmHg 20%
    14:00 +25°C° 0 mm 2 m/s 711 mmHg 20%
    15:00 +24°C° 0 mm 2 m/s 711 mmHg 23%
    16:00 +23°C° 0 mm 2 m/s 711 mmHg 25%
    17:00 +23°C° 0 mm 2 m/s 710 mmHg 28%
    18:00 +19°C° 0 mm 2 m/s 711 mmHg 34%
    19:00 +18°C° 0 mm 1 m/s 711 mmHg 41%
    20:00 +14°C° 0 mm 1 m/s 711 mmHg 47%
    21:00 +14°C° 0 mm 1 m/s 711 mmHg 49%
    22:00 +13°C° 0 mm 1 m/s 711 mmHg 52%
    23:00 +13°C° 0 mm 1 m/s 711 mmHg 54%

    30 Setembro, Domingo

    Tempo Temperatura Precipitação Vento Pressão Humidade
    00:00 +12°C° 0 mm 1 m/s 711 mmHg 55%
    01:00 +12°C° 0 mm 1 m/s 712 mmHg 56%
    02:00 +12°C° 0 mm 1 m/s 712 mmHg 58%
    03:00 +11°C° 0 mm 1 m/s 712 mmHg 60%
    04:00 +11°C° 0 mm 1 m/s 712 mmHg 62%
    05:00 +10°C° 0 mm 1 m/s 712 mmHg 64%
    06:00 +11°C° 0 mm 1 m/s 713 mmHg 62%
    07:00 +12°C° 0 mm 1 m/s 713 mmHg 60%
    08:00 +13°C° 0 mm 1 m/s 713 mmHg 58%
    09:00 +15°C° 0 mm 2 m/s 714 mmHg 54%
    10:00 +17°C° 0 mm 2 m/s 714 mmHg 51%
    11:00 +18°C° 0 mm 3 m/s 714 mmHg 47%
    12:00 +19°C° 0 mm 3 m/s 714 mmHg 47%
    13:00 +19°C° 0 mm 3 m/s 714 mmHg 48%
    14:00 +20°C° 0 mm 4 m/s 713 mmHg 48%
    15:00 +19°C° 0 mm 3 m/s 713 mmHg 52%
    16:00 +18°C° 0 mm 3 m/s 713 mmHg 56%
    17:00 +17°C° 0 mm 3 m/s 713 mmHg 59%
    18:00 +16°C° 0 mm 3 m/s 713 mmHg 66%
    19:00 +15°C° 0 mm 2 m/s 713 mmHg 73%
    20:00 +13°C° 0 mm 2 m/s 713 mmHg 80%
    21:00 +13°C° 0 mm 2 m/s 713 mmHg 83%
    22:00 +13°C° 0 mm 1 m/s 713 mmHg 86%
    23:00 +12°C° 0 mm 1 m/s 713 mmHg 88%
    Mostrar mais